Regional Weather Roundup
Issued by NWS Midland/Odessa, TX

Skip options and go directly to product.
Home | Oldest Version | Next Version | Current Version | All | Text Only | Save Text | Print | Product List | Glossary On

Skip product version selection by date and time.   
547
ASUS44 KMAF 280001
RWRMAF
MIDLAND AREA WEATHER ROUNDUP
NATIONAL WEATHER SERVICE MIDLAND TX
600 PM CST SAT DEC 27 2014

...IN SOUTHWEST TEXAS AND SOUTHEAST NEW MEXICO...

CITY           SKY/WX    TMP DP  RH WIND       PRES   REMARKS
ALPINE         CLOUDY    33  33  97 NE9       30.26R WCI  26
ANDREWS        FAIR      35  22  60 NE6       30.25R WCI  30
ARTESIA        CLOUDY    37  25  60 S5        30.25S WCI  34
BIG SPRING     CLEAR     38  25  58 N7        30.29R WCI  33
CARLSBAD       CLOUDY    36  30  79 W6        30.25S WCI  31
DRYDEN           N/A     47  31  53 NE12      30.21R
FORT STOCKTON  CLOUDY    37  30  75 N9        30.25R WCI  30
GUAD PASS      NOT AVBL
HOBBS          CLEAR     34  27  75 N6        30.25R WCI  29
MARFA          CLOUDY    34  30  86 NE10      30.18R WCI  26
MIDLAND AIRPK  CLEAR     36  28  72 NE9       30.26R WCI  29
MIDLAND INTL   PTCLDY    35  27  72 NE8       30.25R WCI  29
ODESSA         MOCLDY    35  27  72 NE8       30.25S WCI  29
PECOS          CLOUDY    38  33  81 N7        30.27S WCI  33
PRESIDIO       CLOUDY    51  33  48 N17G25    30.11R
SEMINOLE       CLEAR     33  24  68 NE3       30.26S
SNYDER         CLEAR     35  21  56 N6        30.27R WCI  30
WINK           CLOUDY    39  28  64 N6        30.25S WCI  35
$$
...OTHER STATIONS IN TEXAS...

CITY           SKY/WX    TMP DP  RH WIND       PRES   REMARKS
ABILENE        CLEAR     33  23  66 N12       30.29R WCI  24
AMARILLO       CLEAR     28  10  46 NW6       30.23F WCI  22
AUSTIN         CLOUDY    46  37  71 N16G23    30.19R WCI  39
BROWNSVILLE    CLOUDY    74  69  85 S7        29.98R
CORPUS CHRISTI CLOUDY    55  46  71 N22G31    30.04F
DALLAS FTW     CLOUDY    37  30  75 N17       30.25R WCI  27
DEL RIO        CLOUDY    48  34  58 N10       30.22R
EL PASO        PTCLDY    44  28  53 NW8       30.18R WCI  39
HOUSTON INT    LGT RAIN  49  47  93 N12       30.12R
LUBBOCK        PTCLDY    33  22  63 N6        30.23S WCI  28
SAN ANGELO     CLOUDY    40  28  62 N12       30.26R WCI  33
SAN ANTONIO    CLOUDY    49  37  63 N16G22    30.15R
WACO           CLOUDY    39  33  79 N21       30.24R WCI  29
WICHITA FALLS  NOT AVBL
$$
...OTHER LOCATIONS IN NEW MEXICO...

CITY           SKY/WX    TMP DP  RH WIND       PRES   REMARKS
ALAMAGORDO     CLEAR     41  18  38 NW3       30.20R
ALBUQUERQUE    PTCLDY    35   7  31 NW12      30.21R WCI  27
CANNON AFB     CLEAR     32  17  54 NW3       30.21S
CLOVIS         CLEAR     32  16  51 CALM      30.21S
HOLLOMAN AFB   PTCLDY    41  23  48 W3        30.19R
ROSWELL        CLEAR     38  19  46 CALM      30.24R
RUIDOSO        MOCLDY    28  12  50 CALM      30.17R
SANTA FE       CLEAR     27  10  49 SW6       30.16S WCI  20
TRUTH OR CONSE CLEAR     39  11  31 NE6       30.18S WCI  35
TUCUMCARI      CLEAR     25  20  81 E3        30.20F
$$

USA.gov is the U.S. government's official web portal to all federal, state and local government web resources and services.